Weather History for Tamworth Airport, New South Wales

Change the Weather History Date:

Tuesday, April 2, 2013

  Actual Average Record
Temperature  
Mean Temperature 66 °F -  
Max Temperature 80 °F - - ()
Min Temperature 52 °F - - ()
Cooling Degree Days 1    
Growing Degree Days 16 (Base 50)    
Moisture  
Dew Point 49 °F    
Average Humidity 61    
Maximum Humidity 97    
Minimum Humidity 25    
Precipitation  
Precipitation 0.00 in - - ()
Sea Level Pressure  
Sea Level Pressure 30.01 in    
Wind  
Wind Speed 5 mph ()    
Max Wind Speed 10 mph    
Max Gust Speed -    
Visibility 6.2 miles    
Events      
T = Trace of Precipitation, MM = Missing Value Source: Averaged Metar Reports

Daily Weather History Graph

Daily Weather History Graph

Search for Another Location

Airport:

Trip Planner

Search our weather history database for the weather conditions in past years. The results will help you decide how hot, cold, wet, or windy it might be!

Date:

Astronomy

Apr. 02, 2013 Rise Set
Actual Time 7:09 AM AEDT 6:50 PM AEDT
Civil Twilight 6:44 AM AEDT 7:15 PM AEDT
Nautical Twilight 6:15 AM AEDT 7:44 PM AEDT
Astronomical Twilight 5:46 AM AEDT 8:13 PM AEDT
Moon 11:34 PM AEDT (4/2) 1:00 PM AEDT (4/2)
Length of Visible Light 12h 31m
Length of Day
11h 41m
Waning Gibbous, 63% of the Moon is Illuminated
Apr 2
Waning Gibbous
Apr 3
Last Quarter
Apr 10
New
Apr 18
First Quarter
Apr 26
Full

Hourly Weather History & Observations

Time (AEDT) Temp. Dew Point Humidity Pressure Visibility Wind Dir Wind Speed Gust Speed Precip Events Conditions
12:00 AM 64 °F 63 °F 94%  in - Calm Calm - -  
12:00 AM 62.6 °F 51.8 °F 68% 30.04 in 6.2 mi South 5.8 mph - N/A   Overcast
12:30 AM 62.6 °F 53.6 °F 72% 30.04 in 6.2 mi South 8.1 mph - N/A   Overcast
1:00 AM 62.6 °F 53.6 °F 72% 30.01 in 6.2 mi South 6.9 mph - N/A   Overcast
1:30 AM 62.6 °F 53.6 °F 72% 30.01 in 6.2 mi South 8.1 mph - N/A   Overcast
2:00 AM 60.8 °F 53.6 °F 77% 30.01 in 6.2 mi SSE 8.1 mph - N/A   Overcast
2:30 AM 60.8 °F 51.8 °F 72% 30.01 in 6.2 mi SSE 8.1 mph - N/A   Mostly Cloudy
3:00 AM 61 °F 60 °F 97%  in - SW 3.5 mph - -  
3:00 AM 59.0 °F 51.8 °F 77% 30.01 in 6.2 mi South 9.2 mph - N/A   Overcast
3:30 AM 59.0 °F 51.8 °F 77% 30.01 in 6.2 mi South 8.1 mph - N/A   Mostly Cloudy
4:00 AM 55.4 °F 50.0 °F 82% 30.01 in 6.2 mi South 6.9 mph - N/A   Unknown
4:30 AM 55.4 °F 51.8 °F 88% 30.01 in 6.2 mi East 4.6 mph - N/A   Mostly Cloudy
5:00 AM 53.6 °F 48.2 °F 82% 30.01 in 6.2 mi Calm Calm - N/A   Scattered Clouds
5:30 AM 53.6 °F 50.0 °F 88% 30.01 in 6.2 mi South 4.6 mph - N/A   Unknown
6:00 AM 54 °F 53 °F 95%  in - WSW 4.6 mph - -  
6:00 AM 53.6 °F 50.0 °F 88% 30.01 in 6.2 mi South 4.6 mph - N/A   Unknown
6:30 AM 53.6 °F 48.2 °F 82% 30.01 in 6.2 mi East 3.5 mph - N/A   Unknown
7:00 AM 51.8 °F 48.2 °F 88% 30.04 in 6.2 mi Calm Calm - N/A   Unknown
7:30 AM 51.8 °F 48.2 °F 88% 30.04 in 6.2 mi East 2.3 mph - N/A   Unknown
8:00 AM 55.4 °F 51.8 °F 88% 30.04 in 6.2 mi South 4.6 mph - N/A   Unknown
8:30 AM 60.8 °F 55.4 °F 82% 30.04 in 6.2 mi SSE 3.5 mph - N/A   Unknown
9:00 AM 59 °F 56 °F 88%  in - West 4.6 mph - -  
9:00 AM 64.4 °F 53.6 °F 68% 30.04 in 6.2 mi ESE 2.3 mph - N/A   Unknown
9:30 AM 68.0 °F 53.6 °F 60% 30.06 in 6.2 mi East 1.2 mph - N/A   Unknown
10:00 AM 69.8 °F 53.6 °F 56% 30.06 in 6.2 mi NNE 3.5 mph - N/A   Unknown
10:30 AM 69.8 °F 51.8 °F 53% 30.04 in 6.2 mi North 4.6 mph - N/A   Unknown
11:00 AM 71.6 °F 50.0 °F 46% 30.04 in 6.2 mi West 5.8 mph - N/A   Unknown
11:30 AM 73.4 °F 51.8 °F 47% 30.04 in 6.2 mi West 5.8 mph - N/A   Unknown
12:00 PM 72 °F 51 °F 36%  in - West 6.9 mph - -  
12:00 PM 75.2 °F 51.8 °F 44% 30.04 in 6.2 mi West 3.5 mph - N/A   Unknown
12:30 PM 77.0 °F 46.4 °F 34% 30.01 in 6.2 mi WSW 6.9 mph - N/A   Scattered Clouds
2:00 PM 77.0 °F 44.6 °F 32% 29.98 in 6.2 mi NW 8.1 mph - N/A   Mostly Cloudy
3:00 PM 78 °F 49 °F 25%  in - East 5.8 mph - -  
3:00 PM 78.8 °F 42.8 °F 28% 29.95 in 6.2 mi South 10.4 mph - N/A   Unknown
3:30 PM 77.0 °F 42.8 °F 29% 29.95 in 6.2 mi West 8.1 mph - N/A   Scattered Clouds
4:00 PM 80.6 °F 46.4 °F 30% 29.95 in 6.2 mi SSW 6.9 mph - N/A   Scattered Clouds
4:30 PM 78.8 °F 42.8 °F 28% 29.95 in 6.2 mi WSW 5.8 mph - N/A   Unknown
5:00 PM 78.8 °F 42.8 °F 28% 29.95 in 6.2 mi SW 8.1 mph - N/A   Unknown
5:30 PM 78.8 °F 41.0 °F 26% 29.95 in 6.2 mi WSW 8.1 mph - N/A   Unknown
6:00 PM 71 °F 58 °F 54%  in - SE 10.4 mph - -  
6:00 PM 77.0 °F 39.2 °F 26% 29.95 in 6.2 mi WSW 6.9 mph - N/A   Unknown
6:30 PM 73.4 °F 39.2 °F 29% 29.95 in 6.2 mi WSW 6.9 mph - N/A   Unknown
7:00 PM 68.0 °F 41.0 °F 37% 29.98 in 6.2 mi WSW 4.6 mph - N/A   Unknown
8:30 PM 60.8 °F 42.8 °F 52% 30.01 in 6.2 mi WSW 8.1 mph - N/A   Unknown
9:00 PM 62 °F 58 °F 83%  in - SSE 3.5 mph - -  
9:00 PM 60.8 °F 42.8 °F 52% 30.01 in 6.2 mi WSW 6.9 mph - N/A   Unknown
9:30 PM 60.8 °F 42.8 °F 52% 30.01 in 6.2 mi SW 5.8 mph - N/A   Unknown
10:00 PM 59.0 °F 44.6 °F 59% 30.04 in 6.2 mi ENE 4.6 mph - N/A   Unknown
10:30 PM 59.0 °F 42.8 °F 55% 30.04 in 6.2 mi NE 1.2 mph - N/A   Unknown
11:00 PM 53.6 °F 42.8 °F 67% 30.04 in 6.2 mi Calm Calm - N/A   Unknown
11:30 PM 55.4 °F 44.6 °F 67% 30.04 in 6.2 mi Calm Calm - N/A   Unknown